Regional Weather Roundup
Issued by NWS

Home | Current Version | Previous Version | Text Only | Print | Product List | Glossary On
Versions: 1 2 3 4 5 6 7 8 9 10 11 12 13 14 15 16 17 18 19 20 21 22 23 24 25 26 27 28
000
ASCA42 TJSJ 231910
RWRPR
PUERTO RICO/U.S. VIRGIN ISLANDS HOURLY WEATHER ROUNDUP
NATIONAL WEATHER SERVICE SAN JUAN PR
300 PM AST THU MAR 23 2017

PRZ001>002-007>008-010-232000-
PUERTO RICO

CITY           SKY/WX    TMP DP  RH WIND       PRES   REMARKS
SAN JUAN LMM   LGT RAIN  75  75 100 NW6       29.95F FOG
AGUADILLA      DRIZZLE   73  72  94 E8        29.97F
CEIBA          SUNNY     84  73  70 S15       29.96F HX  91
$$

VIZ001>002-232000-
U.S. VIRGIN ISLANDS

CITY           SKY/WX    TMP DP  RH WIND       PRES   REMARKS
CHARLOTTE AMA  MOSUNNY   82  73  74 SE10      29.94F
CHRISTIANSTED  MOSUNNY   84  72  65 S10       29.96F
$$

HOURLY WEATHER ROUNDUP FOR THE NEWS MEDIA

CITY           SKY/WX    TMP DP  RH WIND       PRES   REMARKS
ORLANDO        PTSUNNY   77  60  55 E21G29    30.26S
NEW YORK       MOSUNNY   41   0  18 W9G18     30.54F
NEWARK         MOSUNNY   42  -1  16 CALM      30.54F
CHICAGO        CLOUDY    48  21  34 S18G25    30.23F
HARTFORD       SUNNY     38   0  20 W20       30.42F WCI  28
BOSTON         SUNNY     36   1  22 W16       30.42F WCI  26
DALLAS         MOSUNNY   83  53  35 S25G36    30.00F
PHILADELPHIA   MOSUNNY   42   6  22 S12       30.57F
LOS ANGELES    MOSUNNY   63  41  44 W13       30.13R
WASHINGTON DC  MOSUNNY   45   4  18 CALM      30.57F



USA.gov is the U.S. government's official web portal to all federal, state and local government web resources and services.